ZHUHAI-1 02 (CAS 4B) (42759 NORAD) Tracking and Keplerian Element Data

This shows tracking and keplerian element data for the satellite.

Feedback or suggestion? Click here.




ElementValue
Catalog42759
NameZHUHAI-1 02 (CAS 4B)
Epoch Orbit9759
Epoch Day82.07011416
Epoch Year2019
RAAN351.9959
Inclination43.0186
Eccentricity0.0010047
Argument of Perigee52.4634
Mean Anonmoly75.3707
Mean Motion15.09514945
Decay Rate2.98E-06
L11 42759U 17034B 19082.07011416 .00000298 00000-0 31816-4 0 9994
L22 42759 43.0186 351.9959 0010047 52.4634 75.3707 15.09514945 97590

Live tracking and technical data element details for ZHUHAI-1 02 (CAS 4B) (NORAD 42759). ZHUHAI-1 02 (CAS 4B) can be tracked NOW for your location showing map with azimuth and elevation plus other details from your city location.

Track the satellite on the map from your city or location and see movement details for azimuth, elevation, latitude, longitude, range, height, and movement on the map or in text.







IsCatalogInMostPopularTable: catalog: 42759, numindb: 269
Update: records affected: 1



GetName: 42759 ZHUHAI-1 02 (CAS 4B)

Hit Count: updated at: Sun, 24 Mar 2019 09:35:21 GMT